Location: Battery Park City
(40.7115°N, 74.0163°W)
Time: 09:40:18
(UTC+00:00)

Meteor 1-18 Rocket - Pass Details

Date: 08 December 2019
Orbit: 836 x 909 km, 81.2° (Epoch: 17 January)

Event Time Altitude Azimuth Distance (km) Brightness Sun altitude
Rises 23:36:56 0° 188° (S) 3,475 7.6 -23.6°
Reaches altitude 10° 23:39:23 10° 189° (S) 2,529 6.9 -24.1°
Maximum altitude 23:45:09 88° 277° (W) 874 4.2 -25.1°
Enters shadow 23:48:04 31° 8° (N) 1,485 5.3 -25.7°
